Current Weather Conditions: station PAGS

sailwx.info

Air temperature 3.0° C
Visibility: greater than 7.0 NM
Dewpoint 2.0° C

Last reported at 2016-Feb-08 21:36 UTC.
Time now 2016-Feb-08 23:22 UTC

Location: N 58°25' W 135°44'.
View on Google Maps.

See reports from other nearby stations

  
Tides and Currents Weather Stations Pressure Air Temp Water Temp Dewpoint Dewpoint Depression Visibility Wind Speed Wind Dir Waves Ship Positions
date/time (UTC)wind fromknots sea level pressurealtimeterstation pressurevisibilityair tempwater tempwave heightnotes
2016-Feb-08 22:36 270 4 6.1 3.0
2016-Feb-08 22:16 280 4 7.0 3.0
2016-Feb-08 21:56 310 6 7.8 3.0
2016-Feb-08 21:36 7.0 3.0
2016-Feb-08 21:16 4.3 3.0
2016-Feb-08 20:56 280 3 8.7 3.0
2016-Feb-08 20:36 290 4 8.7 3.0
2016-Feb-08 20:16 350 4 8.7 3.0
2016-Feb-08 19:56 350 4 7.8 3.0
2016-Feb-08 19:36 8.7 3.0
2016-Feb-08 19:16 040 3 8.7 2.0
2016-Feb-08 18:56 8.7 2.0
2016-Feb-08 18:36 8.7 2.0
2016-Feb-08 18:16 040 3 8.7 3.0
2016-Feb-08 17:56 010 3 8.7 3.0
2016-Feb-08 17:36 8.7 3.0
2016-Feb-08 17:16 020 3 8.7 2.0
2016-Feb-08 16:56 360 6 8.7 3.0
2016-Feb-08 16:36 360 6 8.7 3.0
2016-Feb-08 16:16 360 5 8.7 3.0
2016-Feb-08 15:56 350 6 8.7 3.0
2016-Feb-08 15:36 340 5 8.7 2.0
2016-Feb-08 15:16 330 5 8.7 2.0
2016-Feb-08 14:56 320 4 8.7 3.0
2016-Feb-08 14:36 320 4 8.7 2.0
2016-Feb-08 14:16 340 5 8.7 2.0
2016-Feb-08 13:56 330 5 8.7 1.0
2016-Feb-08 13:36 4.3 1.0
2016-Feb-08 13:16 5.2 1.0
2016-Feb-08 12:56 320 3 8.7 1.0
2016-Feb-08 12:36 330 5 3.5 2.0
2016-Feb-08 12:16 350 4 3.5 1.0
2016-Feb-08 11:56 3.5 2.0
2016-Feb-08 11:36 6.1 2.0
2016-Feb-08 11:16 8.7 3.0
2016-Feb-08 10:56 8.7 3.0
2016-Feb-08 10:36 140 3 8.7 4.0
2016-Feb-08 10:16 150 5 8.7 4.0
2016-Feb-08 09:56 100 4 8.7 4.0
2016-Feb-08 09:36 110 6 8.7 4.0
2016-Feb-08 09:16 120 4 8.7 4.0
2016-Feb-08 08:56 130 6 8.7 4.0
2016-Feb-08 08:36 120 5 8.7 4.0
2016-Feb-08 08:16 140 7 8.7 4.0
2016-Feb-08 07:56 130 7 8.7 4.0
2016-Feb-08 07:36 150 7 8.7 4.0
2016-Feb-08 07:16 100 9 8.7 4.0
2016-Feb-08 06:56 100 9 8.7 4.0
2016-Feb-08 06:36 100 6 8.7 4.0
2016-Feb-08 06:16 100 10 gusting 15 8.7 4.0
2016-Feb-08 05:56 120 6 8.7 4.0
2016-Feb-08 05:36 110 10 8.7 4.0
2016-Feb-08 05:16 120 11 8.7 4.0
2016-Feb-08 04:56 130 11 8.7 4.0
2016-Feb-08 04:36 120 11 8.7 4.0
2016-Feb-08 04:16 130 8 8.7 4.0
2016-Feb-08 03:56 150 6 8.7 4.0
2016-Feb-08 03:36 140 7 8.7 4.0
2016-Feb-08 03:16 160 11 8.7 4.0
2016-Feb-08 02:56 150 11 8.7 4.0
2016-Feb-08 02:36 130 3 8.7 4.0
2016-Feb-08 02:16 140 7 8.7 4.0
2016-Feb-08 01:56 130 8 8.7 4.0
2016-Feb-08 01:36 150 7 8.7 4.0
2016-Feb-08 01:16 150 9 8.7 4.0
2016-Feb-08 00:56 150 4 8.7 4.0
2016-Feb-08 00:36 140 11 gusting 15 8.7 4.0
2016-Feb-08 00:16 160 7 8.7 4.0
2016-Feb-07 23:56 150 10 gusting 15 8.7 4.0
2016-Feb-07 23:36 160 10 8.7 4.0
2016-Feb-07 23:16 150 9 8.7 4.0
2016-Feb-07 22:56 8.7 2.0
2016-Feb-07 22:36 340 6 8.7 2.0
2016-Feb-07 22:16 330 6 8.7 2.0
2016-Feb-07 21:56 010 6 8.7 1.0
2016-Feb-07 21:36 290 6 8.7 1.0
2016-Feb-07 21:16 340 4 8.7 1.0
2016-Feb-07 20:56 8.7 1.0
2016-Feb-07 20:36 360 4 8.7 1.0
2016-Feb-07 20:16 320 5 8.7 1.0
2016-Feb-07 19:56 360 6 7.8 1.0
2016-Feb-07 19:36 300 4 8.7 1.0
2016-Feb-07 19:16 320 6 8.7 1.0
2016-Feb-07 18:56 330 5 8.7 1.0
2016-Feb-07 18:36 330 6 6.1 1.0
2016-Feb-07 18:16 340 7 2.6 1.0
2016-Feb-07 17:56 350 6 1.5-0.0
2016-Feb-07 17:36 360 4 2.2-0.0
2016-Feb-07 17:16 340 4 2.2 1.0
2016-Feb-07 16:56 330 7 4.3 1.0
2016-Feb-07 16:36 320 6 3.5 1.0
2016-Feb-07 16:16 320 7 6.1 1.0
2016-Feb-07 15:56 320 7 4.3 1.0
2016-Feb-07 15:36 320 7 3.5 1.0
2016-Feb-07 15:16 320 8 7.0 1.0
2016-Feb-07 14:56 320 8 7.8 1.0
2016-Feb-07 14:36 310 5 8.7 1.0
2016-Feb-07 14:16 340 5 8.7 1.0
2016-Feb-07 13:56 340 7 8.7 1.0
2016-Feb-07 13:36 8.7-0.0
2016-Feb-07 13:16 8.7 1.0
2016-Feb-07 12:56 340 3 8.7 1.0
2016-Feb-07 12:36 8.7 1.0
2016-Feb-07 12:16 340 6 8.7 1.0
2016-Feb-07 11:56 330 6 8.7-0.0
2016-Feb-07 11:36 340 4 8.7-0.0
2016-Feb-07 11:16 350 9 8.7-0.0
2016-Feb-07 10:56 330 9 8.7-0.0
2016-Feb-07 10:36 310 3 8.7-0.0
2016-Feb-07 10:16 320 6 8.7-0.0
2016-Feb-07 09:56 290 3 8.7-0.0
2016-Feb-07 09:36 330 6 8.7-1.0
2016-Feb-07 09:16 340 5 8.7-1.0
2016-Feb-07 08:56 330 6 8.7-1.0
2016-Feb-07 08:36 340 6 8.7-1.0
2016-Feb-07 08:16 340 4 8.7-2.0
2016-Feb-07 07:56 360 5 8.7-2.0
2016-Feb-07 07:36 8.7-1.0
2016-Feb-07 07:16 350 5 8.7-1.0
2016-Feb-07 06:56 350 5 8.7-2.0
2016-Feb-07 06:36 350 3 8.7-2.0
2016-Feb-07 06:16 5.2-2.0
2016-Feb-07 05:56 1.7-2.0
2016-Feb-07 05:36 8.7-2.0
2016-Feb-07 05:16 360 3 7.8-1.0
2016-Feb-07 04:56 010 3 8.7-1.0
2016-Feb-07 04:36 8.7 1.0
2016-Feb-07 04:16 130 3 8.7 1.0
2016-Feb-07 03:56 130 3 8.7 2.0
2016-Feb-07 03:36 100 6 8.7 2.0
2016-Feb-07 03:16 120 6 8.7 2.0
2016-Feb-07 02:56 120 6 8.7 2.0
2016-Feb-07 02:36 100 5 8.7 2.0
2016-Feb-07 02:16 120 6 8.7 2.0
2016-Feb-07 01:56 120 6 8.7 3.0
2016-Feb-07 01:36 090 6 8.7 3.0
2016-Feb-07 01:16 120 7 8.7 3.0
2016-Feb-07 00:56 120 6 8.7 4.0
2016-Feb-07 00:36 130 8 8.7 4.0
2016-Feb-07 00:16 120 9 8.7 4.0
2016-Feb-06 23:56 130 10 8.7 4.0
2016-Feb-06 23:36 130 9 8.7 4.0
2016-Feb-06 23:16 130 7 8.7 4.0